Rockaway Beach Weather Center

Moon Phase Calendar



Online Cameras

 


      

Current Conditions in Rockaway Beach
7/25/2021 1:57:22 AM

57°F
Feels Like 56
Clear
Humidity
79%
Pressure
30.09"
Wind
11.3 mph (N)
Dew Point
51°F
UV Index
0/10 (Low)
Visibility
6 mi

Hourly Forecast

Date & Time Sun, Jul 25
1:00 AM
Sun, Jul 25
2:00 AM
Sun, Jul 25
3:00 AM
Sun, Jul 25
4:00 AM
Sun, Jul 25
5:00 AM
Sun, Jul 25
6:00 AM
Sun, Jul 25
7:00 AM
Sun, Jul 25
8:00 AM
Sun, Jul 25
9:00 AM
Sun, Jul 25
10:00 AM
Sun, Jul 25
11:00 AM
Sun, Jul 25
12:00 PM
Sun, Jul 25
1:00 PM
Sun, Jul 25
2:00 PM
Sun, Jul 25
3:00 PM
Sun, Jul 25
4:00 PM
Sun, Jul 25
5:00 PM
Sun, Jul 25
6:00 PM
Sun, Jul 25
7:00 PM
Sun, Jul 25
8:00 PM
Sun, Jul 25
9:00 PM
Sun, Jul 25
10:00 PM
Sun, Jul 25
11:00 PM
Mon, Jul 26
12:00 AM
Mon, Jul 26
1:00 AM
Mon, Jul 26
2:00 AM
Mon, Jul 26
3:00 AM
Mon, Jul 26
4:00 AM
Mon, Jul 26
5:00 AM
Mon, Jul 26
6:00 AM
Mon, Jul 26
7:00 AM
Mon, Jul 26
8:00 AM
Mon, Jul 26
9:00 AM
Mon, Jul 26
10:00 AM
Mon, Jul 26
11:00 AM
Mon, Jul 26
12:00 PM
Mon, Jul 26
1:00 PM
Mon, Jul 26
2:00 PM
Mon, Jul 26
3:00 PM
Mon, Jul 26
4:00 PM
Mon, Jul 26
5:00 PM
Mon, Jul 26
6:00 PM
Mon, Jul 26
7:00 PM
Mon, Jul 26
8:00 PM
Mon, Jul 26
9:00 PM
Mon, Jul 26
10:00 PM
Mon, Jul 26
11:00 PM
Tue, Jul 27
12:00 AM
Condition
Clear

Clear

Clear

Clear

Clear

Clear

Clear

Clear

Clear

Clear

Clear

Clouds

Clouds

Clouds

Clouds

Clouds

Clouds

Clouds

Clear

Clear

Clear

Clear

Clear

Clear

Clear

Clear

Clear

Clouds

Clouds

Clear

Clear

Clouds

Clouds

Clouds

Clouds

Clouds

Clouds

Clouds

Clouds

Clouds

Clouds

Clouds

Clouds

Clouds

Clouds

Clouds

Clouds

Clouds
Temperature 57°F57°F57°F57°F57°F57°F57°F60°F63°F64°F65°F66°F66°F66°F66°F65°F65°F64°F63°F62°F59°F58°F58°F57°F57°F57°F57°F57°F56°F56°F57°F60°F62°F64°F65°F66°F66°F66°F66°F65°F65°F64°F63°F61°F59°F59°F58°F58°F
Feels Like 56°F56°F56°F56°F56°F56°F57°F59°F62°F64°F65°F65°F66°F66°F65°F65°F64°F64°F63°F61°F59°F58°F58°F57°F57°F57°F57°F56°F56°F56°F57°F59°F62°F64°F65°F66°F66°F66°F66°F65°F65°F64°F63°F61°F59°F58°F58°F58°F
Cloudiness 2%2%2%2%1%0%0%0%0%0%0%13%17%19%21%21%18%13%9%8%7%6%6%7%6%4%4%16%14%1%6%13%13%13%11%19%56%71%78%82%85%100%100%100%100%100%100%100%
Visibility 6 mi6 mi6 mi6 mi6 mi6 mi6 mi6 mi6 mi6 mi6 mi6 mi6 mi6 mi6 mi6 mi6 mi6 mi6 mi6 mi6 mi6 mi6 mi6 mi6 mi6 mi6 mi6 mi6 mi6 mi6 mi6 mi6 mi6 mi6 mi6 mi6 mi6 mi6 mi6 mi6 mi6 mi6 mi6 mi6 mi6 mi6 mi6 mi
Precipitation 0%0%0%0%0%0%0%0%0%0%0%0%0%0%0%0%0%0%0%0%0%0%0%0%0%0%0%0%0%0%0%0%0%0%0%0%0%0%0%0%0%0%0%0%0%0%0%0%
Humidity 82%79%82%84%87%89%90%85%78%76%76%75%75%76%76%77%77%78%80%84%90%93%93%93%93%93%93%92%92%92%90%86%79%75%74%74%73%73%74%74%75%76%78%84%88%91%92%91%
Dew Point 52°F51°F52°F52°F53°F53°F54°F55°F55°F55°F55°F56°F56°F56°F56°F56°F56°F56°F56°F56°F56°F56°F55°F55°F55°F54°F54°F54°F54°F53°F54°F55°F55°F55°F55°F55°F55°F55°F56°F56°F55°F55°F55°F56°F55°F55°F55°F55°F
Pressure 30.09"30.09"30.09"30.09"30.09"30.09"30.12"30.12"30.12"30.09"30.09"30.09"30.09"30.06"30.06"30.06"30.06"30.03"30.03"30.03"30.03"30.06"30.06"30.03"30.03"30.03"30.03"30.03"30"30.03"30.03"30.03"30.03"30"30"30"30"30"29.97"29.97"29.97"29.97"29.97"29.97"30"30"30"30"
Wind Speed 11.9 mph11.3 mph11.2 mph11.2 mph11.5 mph11 mph10.2 mph10 mph11.2 mph12.8 mph13.8 mph14.4 mph14.9 mph15.5 mph16 mph16.3 mph16.1 mph15.8 mph15.2 mph14.1 mph13.2 mph11.9 mph11 mph10.3 mph9.9 mph9.7 mph9.1 mph9.1 mph9.4 mph8.7 mph8.4 mph8.6 mph10 mph11.4 mph13.5 mph14.5 mph15.1 mph15.8 mph15.5 mph15.1 mph14.6 mph14.2 mph13.8 mph12.8 mph12.2 mph11.6 mph11.3 mph10.4 mph
Wind
Direction

N

N

N

N

N

N
10°
N

N
351°
N
342°
NNW
338°
NNW
336°
NNW
334°
NNW
335°
NNW
337°
NNW
339°
NNW
341°
NNW
344°
NNW
348°
NNW
353°
N
358°
N

N

N

N

N
12°
NNE
11°
N
11°
N
10°
N
14°
NNE
12°
NNE

N
352°
N
343°
NNW
337°
NNW
335°
NNW
335°
NNW
336°
NNW
336°
NNW
339°
NNW
341°
NNW
342°
NNW
346°
NNW
352°
N
357°
N

N

N

N

Daily Forecast

Date High Low Precip. Humidity
Today
Jul 25

Clouds
66 °F
57 °F
0%
75%
Monday
Jul 26

Clouds
66 °F
56 °F
0%
73%
Tuesday
Jul 27

Clouds
65 °F
57 °F
0%
69%
Wednesday
Jul 28

Clouds
68 °F
57 °F
0%
60%
Thursday
Jul 29

Clouds
68 °F
59 °F
0%
72%
Friday
Jul 30

Clear
69 °F
58 °F
0%
66%
Saturday
Jul 31

Clouds
66 °F
57 °F
0%
73%
Sunday
Aug 1

Clear
64 °F
55 °F
0%
70%
Monday
Aug 2

Clear
64 °F
55 °F
0%
73%
Tuesday
Aug 3

Clouds
65 °F
54 °F
0%
70%
Wednesday
Aug 4

Clouds
66 °F
55 °F
0%
75%
Thursday
Aug 5

Clouds
66 °F
57 °F
0%
75%
Friday
Aug 6

Clouds
65 °F
57 °F
0%
78%
Saturday
Aug 7

Clouds
65 °F
58 °F
0%
76%
Sunday
Aug 8

Clouds
65 °F
58 °F
0%
75%
Monday
Aug 9

Clouds
64 °F
55 °F
0%
76%

Temperature 8-14 Day Outlook



Precipitation 8-14 Day Outlook




Quick Links
Rockaway Beach News
Rockaway Beach Photos
Rockaway Beach Videos




About Us
Contact Us
Site Map
Search Site
Advertise With Us
   
RockawayBeach.USCoast.info
THE ROCKAWAY BEACH WEBSITE

Copyright 2021, Coastal Town
Privacy    |    Legal